Time,TemperatureF,DewpointF,PressureIn,WindDirection,WindDirectionDegrees,WindSpeedMPH,WindSpeedGustMPH,Humidity,HourlyPrecipIn,Conditions,Clouds,dailyrainin,SoftwareType,DateUTC
2013-03-24 00:09:00,41.0,38.0,29.68,North,0,1.6,-999.0,89,-99.99,,,0.00,Acu-Link.com,2013-03-24 04:09:00,
2013-03-24 00:25:00,39.2,36.8,29.68,NNE,22,0.0,-999.0,91,-99.99,,,0.00,Acu-Link.com,2013-03-24 04:25:00,
2013-03-24 00:40:00,39.2,37.3,29.68,NE,45,0.0,-999.0,93,-99.99,,,0.00,Acu-Link.com,2013-03-24 04:40:00,
2013-03-24 00:55:00,41.0,39.4,29.66,WNW,292,1.1,-999.0,94,-99.99,,,0.00,Acu-Link.com,2013-03-24 04:55:00,
2013-03-24 01:10:00,41.0,39.1,29.66,NNE,22,0.0,-999.0,93,-99.99,,,0.00,Acu-Link.com,2013-03-24 05:10:00,
2013-03-24 01:25:00,41.0,38.9,29.64,WNW,292,0.0,-999.0,92,-99.99,,,0.01,Acu-Link.com,2013-03-24 05:25:00,
2013-03-24 01:40:00,41.0,38.6,29.65,WNW,292,0.0,-999.0,91,-99.99,,,0.01,Acu-Link.com,2013-03-24 05:40:00,
2013-03-24 01:56:00,41.0,38.6,29.66,WNW,292,0.0,-999.0,91,-99.99,,,0.01,Acu-Link.com,2013-03-24 05:56:00,
2013-03-24 02:11:00,42.8,40.4,29.68,NNW,337,0.0,-999.0,91,-99.99,,,0.01,Acu-Link.com,2013-03-24 06:11:00,
2013-03-24 02:26:00,42.8,40.4,29.69,NNW,337,0.0,-999.0,91,-99.99,,,0.01,Acu-Link.com,2013-03-24 06:26:00,
2013-03-24 02:42:00,42.8,40.4,29.71,NW,315,0.0,-999.0,91,-99.99,,,0.01,Acu-Link.com,2013-03-24 06:42:00,
2013-03-24 02:57:00,42.8,40.1,29.70,NNE,22,0.0,-999.0,90,-99.99,,,0.01,Acu-Link.com,2013-03-24 06:57:00,
2013-03-24 03:12:00,42.8,40.6,29.66,NW,315,0.0,-999.0,92,-99.99,,,0.01,Acu-Link.com,2013-03-24 07:12:00,
2013-03-24 03:28:00,42.8,41.2,29.64,East,90,0.0,-999.0,94,-99.99,,,0.01,Acu-Link.com,2013-03-24 07:28:00,
2013-03-24 03:43:00,42.8,41.5,29.63,NNW,337,0.0,-999.0,95,-99.99,,,0.01,Acu-Link.com,2013-03-24 07:43:00,
2013-03-24 03:58:00,42.8,41.2,29.63,ENE,67,0.0,-999.0,94,-99.99,,,0.01,Acu-Link.com,2013-03-24 07:58:00,
2013-03-24 04:13:00,42.8,41.7,29.63,NNE,22,0.0,-999.0,96,-99.99,,,0.01,Acu-Link.com,2013-03-24 08:13:00,
2013-03-24 04:28:00,42.8,41.7,29.61,NNW,337,0.0,-999.0,96,-99.99,,,0.02,Acu-Link.com,2013-03-24 08:28:00,
2013-03-24 04:43:00,42.8,42.0,29.61,ENE,67,0.0,-999.0,97,-99.99,,,0.04,Acu-Link.com,2013-03-24 08:43:00,
2013-03-24 04:59:00,42.8,42.0,29.60,West,270,3.6,-999.0,97,-99.99,,,0.06,Acu-Link.com,2013-03-24 08:59:00,
2013-03-24 05:14:00,42.8,42.0,29.59,SSW,202,2.0,-999.0,97,-99.99,,,0.11,Acu-Link.com,2013-03-24 09:14:00,
2013-03-24 05:29:00,42.8,42.0,29.58,NNE,22,2.0,-999.0,97,-99.99,,,0.13,Acu-Link.com,2013-03-24 09:29:00,
2013-03-24 05:44:00,42.8,42.0,29.58,NNE,22,2.0,-999.0,97,-99.99,,,0.14,Acu-Link.com,2013-03-24 09:44:00,
2013-03-24 06:00:00,42.8,42.0,29.58,West,270,1.6,-999.0,97,-99.99,,,0.15,Acu-Link.com,2013-03-24 10:00:00,
2013-03-24 06:15:00,42.8,42.3,29.55,WNW,292,2.7,-999.0,98,-99.99,,,0.18,Acu-Link.com,2013-03-24 10:15:00,
2013-03-24 06:30:00,42.8,42.3,29.57,WNW,292,1.1,-999.0,98,-99.99,,,0.20,Acu-Link.com,2013-03-24 10:30:00,
2013-03-24 06:46:00,41.0,40.5,29.58,SW,225,1.6,-999.0,98,-99.99,,,0.22,Acu-Link.com,2013-03-24 10:46:00,
2013-03-24 07:32:00,41.0,39.9,29.51,ESE,112,5.1,-999.0,96,-99.99,,,0.33,Acu-Link.com,2013-03-24 11:32:00,
2013-03-24 08:02:00,41.0,39.7,29.47,SE,135,3.1,-999.0,95,-99.99,,,0.34,Acu-Link.com,2013-03-24 12:02:00,
2013-03-24 08:17:00,41.0,39.4,29.46,East,90,4.0,-999.0,94,-99.99,,,0.34,Acu-Link.com,2013-03-24 12:17:00,
2013-03-24 08:32:00,41.0,39.4,29.49,ESE,112,3.6,-999.0,94,-99.99,,,0.34,Acu-Link.com,2013-03-24 12:32:00,
2013-03-24 08:48:00,41.0,39.7,29.55,NW,315,1.1,-999.0,95,-99.99,,,0.34,Acu-Link.com,2013-03-24 12:48:00,
2013-03-24 09:03:00,41.0,40.2,29.58,SSW,202,0.0,-999.0,97,-99.99,,,0.37,Acu-Link.com,2013-03-24 13:03:00,
2013-03-24 09:18:00,41.0,40.5,29.59,North,0,2.0,-999.0,98,-99.99,,,0.57,Acu-Link.com,2013-03-24 13:18:00,
2013-03-24 09:33:00,41.0,40.5,29.57,NE,45,3.1,-999.0,98,-99.99,,,0.63,Acu-Link.com,2013-03-24 13:33:00,
2013-03-24 09:48:00,41.0,39.9,29.53,West,270,1.6,-999.0,96,-99.99,,,0.64,Acu-Link.com,2013-03-24 13:48:00,
2013-03-24 10:03:00,42.8,41.5,29.50,North,0,5.6,-999.0,95,-99.99,,,0.66,Acu-Link.com,2013-03-24 14:03:00,
2013-03-24 10:19:00,41.0,39.4,29.50,NNW,337,4.0,-999.0,94,-99.99,,,0.66,Acu-Link.com,2013-03-24 14:19:00,
2013-03-24 10:34:00,41.0,39.4,29.50,NW,315,5.6,-999.0,94,-99.99,,,0.66,Acu-Link.com,2013-03-24 14:34:00,
2013-03-24 10:49:00,41.0,38.9,29.48,NW,315,4.7,-999.0,92,-99.99,,,0.66,Acu-Link.com,2013-03-24 14:49:00,
2013-03-24 11:04:00,41.0,38.9,29.48,WNW,292,8.7,-999.0,92,-99.99,,,0.66,Acu-Link.com,2013-03-24 15:04:00,
2013-03-24 11:19:00,41.0,39.7,29.48,NW,315,4.0,-999.0,95,-99.99,,,0.69,Acu-Link.com,2013-03-24 15:19:00,
2013-03-24 11:34:00,41.0,39.9,29.47,SE,135,3.1,-999.0,96,-99.99,,,0.72,Acu-Link.com,2013-03-24 15:34:00,
2013-03-24 11:49:00,41.0,39.9,29.46,West,270,3.1,-999.0,96,-99.99,,,0.78,Acu-Link.com,2013-03-24 15:49:00,
2013-03-24 12:05:00,41.0,39.9,29.45,North,0,10.3,-999.0,96,-99.99,,,0.80,Acu-Link.com,2013-03-24 16:05:00,
2013-03-24 12:20:00,41.0,39.9,29.44,East,90,3.6,-999.0,96,-99.99,,,0.84,Acu-Link.com,2013-03-24 16:20:00,
2013-03-24 12:35:00,39.2,38.2,29.43,ESE,112,2.7,-999.0,96,-99.99,,,0.84,Acu-Link.com,2013-03-24 16:35:00,
2013-03-24 12:50:00,41.0,39.9,29.43,WNW,292,5.1,-999.0,96,-99.99,,,0.87,Acu-Link.com,2013-03-24 16:50:00,
2013-03-24 13:05:00,39.2,38.4,29.45,NNE,22,2.0,-999.0,97,-99.99,,,0.89,Acu-Link.com,2013-03-24 17:05:00,
2013-03-24 13:36:00,39.2,38.2,29.42,West,270,2.7,-999.0,96,-99.99,,,0.94,Acu-Link.com,2013-03-24 17:36:00,
2013-03-24 14:22:00,41.0,39.9,29.41,NNW,337,2.7,-999.0,96,-99.99,,,1.00,Acu-Link.com,2013-03-24 18:22:00,
2013-03-24 14:37:00,39.2,37.6,29.40,WNW,292,2.0,-999.0,94,-99.99,,,1.00,Acu-Link.com,2013-03-24 18:37:00,
2013-03-24 14:53:00,39.2,37.6,29.39,ESE,112,4.0,-999.0,94,-99.99,,,1.00,Acu-Link.com,2013-03-24 18:53:00,
2013-03-24 15:08:00,39.2,37.9,29.38,ESE,112,3.1,-999.0,95,-99.99,,,1.00,Acu-Link.com,2013-03-24 19:08:00,
2013-03-24 15:23:00,39.2,37.6,29.40,North,0,2.7,-999.0,94,-99.99,,,1.00,Acu-Link.com,2013-03-24 19:23:00,
2013-03-24 15:39:00,39.2,37.6,29.40,NW,315,6.3,-999.0,94,-99.99,,,1.00,Acu-Link.com,2013-03-24 19:39:00,
2013-03-24 15:54:00,39.2,37.9,29.39,ENE,67,4.0,-999.0,95,-99.99,,,1.00,Acu-Link.com,2013-03-24 19:54:00,
2013-03-24 16:09:00,39.2,37.9,29.39,SE,135,3.6,-999.0,95,-99.99,,,1.00,Acu-Link.com,2013-03-24 20:09:00,
2013-03-24 16:24:00,39.2,37.9,29.37,NNE,22,3.1,-999.0,95,-99.99,,,1.00,Acu-Link.com,2013-03-24 20:24:00,
2013-03-24 16:39:00,41.0,39.1,29.35,South,180,2.7,-999.0,93,-99.99,,,1.00,Acu-Link.com,2013-03-24 20:39:00,
2013-03-24 16:55:00,41.0,38.3,29.35,North,0,5.1,-999.0,90,-99.99,,,1.00,Acu-Link.com,2013-03-24 20:55:00,
2013-03-24 17:10:00,41.0,38.6,29.33,NNW,337,2.7,-999.0,91,-99.99,,,1.00,Acu-Link.com,2013-03-24 21:10:00,
2013-03-24 17:25:00,41.0,38.0,29.32,West,270,8.7,-999.0,89,-99.99,,,1.00,Acu-Link.com,2013-03-24 21:25:00,
2013-03-24 17:40:00,39.2,36.5,29.33,ENE,67,2.7,-999.0,90,-99.99,,,1.00,Acu-Link.com,2013-03-24 21:40:00,
2013-03-24 18:42:00,39.2,36.8,29.35,SE,135,2.7,-999.0,91,-99.99,,,1.00,Acu-Link.com,2013-03-24 22:42:00,
2013-03-24 18:57:00,39.2,36.8,29.36,SE,135,1.6,-999.0,91,-99.99,,,1.00,Acu-Link.com,2013-03-24 22:57:00,
2013-03-24 19:12:00,39.2,37.1,29.36,ESE,112,1.1,-999.0,92,-99.99,,,1.00,Acu-Link.com,2013-03-24 23:12:00,
2013-03-24 19:27:00,37.4,35.0,29.37,ESE,112,2.0,-999.0,91,-99.99,,,1.00,Acu-Link.com,2013-03-24 23:27:00,
2013-03-24 19:43:00,37.4,35.6,29.37,NW,315,2.7,-999.0,93,-99.99,,,1.00,Acu-Link.com,2013-03-24 23:43:00,
2013-03-24 19:58:00,37.4,36.1,29.37,ENE,67,1.6,-999.0,95,-99.99,,,1.00,Acu-Link.com,2013-03-24 23:58:00,
2013-03-24 20:13:00,37.4,36.4,29.37,NE,45,1.6,-999.0,96,-99.99,,,1.00,Acu-Link.com,2013-03-25 00:13:00,
2013-03-24 20:28:00,37.4,36.6,29.40,SSW,202,1.6,-999.0,97,-99.99,,,1.00,Acu-Link.com,2013-03-25 00:28:00,
2013-03-24 20:44:00,37.4,36.6,29.41,ESE,112,1.6,-999.0,97,-99.99,,,1.00,Acu-Link.com,2013-03-25 00:44:00,
2013-03-24 20:59:00,37.4,36.9,29.40,North,0,1.1,-999.0,98,-99.99,,,1.00,Acu-Link.com,2013-03-25 00:59:00,
2013-03-24 21:14:00,37.4,36.9,29.36,WNW,292,2.7,-999.0,98,-99.99,,,1.00,Acu-Link.com,2013-03-25 01:14:00,
2013-03-24 21:29:00,37.4,36.9,29.37,SW,225,1.6,-999.0,98,-99.99,,,1.00,Acu-Link.com,2013-03-25 01:29:00,
2013-03-24 21:44:00,37.4,36.9,29.37,SW,225,0.0,-999.0,98,-99.99,,,1.00,Acu-Link.com,2013-03-25 01:44:00,
2013-03-24 22:00:00,37.4,36.9,29.37,SSW,202,0.0,-999.0,98,-99.99,,,1.00,Acu-Link.com,2013-03-25 02:00:00,
2013-03-24 22:15:00,37.4,36.9,29.37,SW,225,1.6,-999.0,98,-99.99,,,1.00,Acu-Link.com,2013-03-25 02:15:00,
2013-03-24 22:30:00,37.4,36.9,29.36,East,90,2.0,-999.0,98,-99.99,,,1.00,Acu-Link.com,2013-03-25 02:30:00,
2013-03-24 23:01:00,37.4,36.9,29.37,East,90,1.6,-999.0,98,-99.99,,,1.00,Acu-Link.com,2013-03-25 03:01:00,
2013-03-24 23:31:00,37.4,36.9,29.37,East,90,1.6,-999.0,98,-99.99,,,1.00,Acu-Link.com,2013-03-25 03:31:00,
2013-03-24 23:47:00,37.4,36.9,29.36,West,270,1.6,-999.0,98,-99.99,,,1.00,Acu-Link.com,2013-03-25 03:47:00,